IT9NKT-WX Weather Reports


time (UTC)temp
C
wind
direction
speed
KPH
gust
KPH
rain 1hr
cm
rain 24hr
cm
rain mn
cm
humidity
%
barometer
mb
20260507145004 18 62 6.4 22.5 0.00 0.00 0.00 77 1011.3
20260507144503 18 44 6.4 20.9 0.00 0.00 0.00 78 1011.1
20260507144003 18 41 8.0 33.8 0.00 0.00 0.00 77 1011.3
20260507143503 18 47 8.0 33.8 0.00 0.00 0.00 77 1011.0
20260507143003 18 53 6.4 17.7 0.00 0.00 0.00 77 1011.2
20260507142503 18 61 8.0 29.0 0.00 0.00 0.00 78 1011.3
20260507142003 18 61 6.4 29.0 0.00 0.00 0.00 77 1011.5
20260507141504 18 52 6.4 20.9 0.00 0.00 0.00 77 1011.8
20260507141003 18 58 9.7 33.8 0.00 0.00 0.00 77 1011.5
20260507140503 18 65 8.0 33.8 0.00 0.00 0.00 77 1011.5
20260507140003 18 51 9.7 38.6 0.00 0.00 0.00 76 1011.6
20260507135715 18 51 11.3 38.6 0.00 0.00 0.00 76 1011.5
20260507135003 18 44 9.7 25.7 0.00 0.00 0.00 76 1011.6
20260507134503 18 34 11.3 33.8 0.00 0.00 0.00 76 1011.9
20260507134214 18 39 11.3 33.8 0.00 0.00 0.00 75 1011.9
20260507133503 18 44 11.3 27.4 0.00 0.00 0.00 75 1011.9
20260507133004 19 37 11.3 43.5 0.00 0.00 0.00 74 1011.9
20260507132504 19 34 12.9 43.5 0.00 0.00 0.00 73 1012.0
20260507132216 18 33 14.5 43.5 0.00 0.00 0.00 73 1011.8
20260507131504 19 51 11.3 30.6 0.00 0.00 0.00 72 1011.8
20260507131004 19 48 9.7 29.0 0.00 0.00 0.00 73 1011.8
20260507130503 20 45 9.7 27.4 0.00 0.00 0.00 71 1012.1
20260507130004 20 59 9.7 25.7 0.00 0.00 0.00 70 1012.1
20260507125504 20 54 11.3 38.6 0.00 0.00 0.00 71 1012.2
20260507125214 20 53 11.3 38.6 0.00 0.00 0.00 72 1012.2
20260507124503 19 57 12.9 37.0 0.00 0.00 0.00 72 1012.6
20260507124004 19 51 12.9 46.7 0.00 0.00 0.00 72 1012.4
20260507123718 19 58 12.9 46.7 0.00 0.00 0.00 71 1012.5
20260507123004 19 51 11.3 33.8 0.00 0.00 0.00 71 1012.4
20260507122714 20 48 11.3 33.8 0.00 0.00 0.00 70 1012.6
20260507122004 20 60 9.7 30.6 0.00 0.00 0.00 69 1012.4
20260507121504 20 55 9.7 24.1 0.00 0.00 0.00 69 1012.6
20260507121004 20 57 11.3 30.6 0.00 0.00 0.00 70 1012.6
20260507120504 20 56 11.3 30.6 0.00 0.00 0.00 69 1012.5
20260507120214 20 53 11.3 30.6 0.00 0.00 0.00 69 1012.7
20260507115504 19 49 12.9 40.2 0.00 0.00 0.00 70 1012.6
20260507115004 20 61 11.3 30.6 0.00 0.00 0.00 68 1012.5
20260507114503 20 62 12.9 24.1 0.00 0.00 0.00 70 1012.6
20260507114004 20 61 11.3 40.2 0.00 0.00 0.00 67 1012.7
20260507113503 20 45 14.5 40.2 0.00 0.00 0.00 70 1012.3
20260507113004 20 44 12.9 30.6 0.00 0.00 0.00 68 1012.5
20260507112503 20 44 11.3 40.2 0.00 0.00 0.00 67 1012.5
20260507112217 20 48 12.9 40.2 0.00 0.00 0.00 68 1012.7
20260507111504 20 53 11.3 24.1 0.00 0.00 0.00 69 1012.7
20260507111003 20 59 11.3 33.8 0.00 0.00 0.00 68 1013.2
20260507110716 20 63 11.3 33.8 0.00 0.00 0.00 67 1013.0
20260507110003 20 45 11.3 48.3 0.00 0.00 0.00 68 1013.3
20260507105503 20 49 11.3 48.3 0.00 0.00 0.00 68 1013.2
20260507105003 20 62 11.3 33.8 0.00 0.00 0.00 68 1013.2
20260507104504 20 55 12.9 30.6 0.00 0.00 0.00 68 1013.3
20260507104004 20 58 12.9 43.5 0.00 0.00 0.00 65 1013.6
20260507103504 20 62 11.3 43.5 0.00 0.00 0.00 64 1013.5
20260507103004 20 64 11.3 33.8 0.00 0.00 0.00 65 1013.8
20260507102504 20 65 11.3 37.0 0.00 0.00 0.00 68 1013.7
20260507102003 20 56 11.3 37.0 0.00 0.00 0.00 65 1013.5
20260507101504 20 53 9.7 27.4 0.00 0.00 0.00 66 1013.6
20260507101004 20 57 9.7 38.6 0.00 0.00 0.00 65 1013.4
20260507100503 20 67 11.3 38.6 0.00 0.00 0.00 66 1013.6
20260507100215 20 63 11.3 30.6 0.00 0.00 0.00 65 1013.4
20260507095718 20 57 11.3 33.8 0.00 0.00 0.00 62 1013.8
20260507095216 20 53 11.3 33.8 0.00 0.00 0.00 61 1013.7
20260507094504 20 50 11.3 40.2 0.00 0.00 0.00 61 1013.7
20260507094004 20 55 12.9 40.2 0.00 0.00 0.00 63 1013.6
20260507093503 20 60 11.3 29.0 0.00 0.00 0.00 63 1013.8
20260507093003 20 59 9.7 30.6 0.00 0.00 0.00 62 1014.0
20260507092503 20 46 11.3 30.6 0.00 0.00 0.00 62 1013.7
20260507092003 20 38 11.3 24.1 0.00 0.00 0.00 64 1013.6
20260507091717 20 45 11.3 33.8 0.00 0.00 0.00 65 1013.6
20260507091214 19 50 11.3 33.8 0.00 0.00 0.00 66 1013.8
20260507090718 19 43 11.3 48.3 0.00 0.00 0.00 67 1014.0
20260507090005 19 48 11.3 48.3 0.00 0.00 0.00 67 1013.7
20260507085504 19 55 11.3 27.4 0.00 0.00 0.00 68 1013.7
20260507085003 19 55 11.3 20.9 0.00 0.00 0.00 69 1013.6
20260507084504 19 59 11.3 30.6 0.00 0.00 0.00 70 1013.7
20260507084218 19 58 11.3 30.6 0.00 0.00 0.00 70 1013.8
20260507083503 19 63 11.3 33.8 0.00 0.00 0.00 70 1013.9
20260507083004 19 49 11.3 33.8 0.00 0.00 0.00 70 1013.7
20260507082503 19 42 9.7 30.6 0.00 0.00 0.00 69 1013.4
20260507082003 19 49 9.7 43.5 0.00 0.00 0.00 67 1013.5
20260507081717 19 51 11.3 43.5 0.00 0.00 0.00 69 1013.4
20260507081004 19 51 9.7 30.6 0.00 0.00 0.00 70 1013.3
20260507080503 19 50 9.7 25.7 0.00 0.00 0.00 69 1013.6
20260507080216 19 52 8.0 24.1 0.00 0.00 0.00 68 1013.3
20260507075504 19 67 8.0 35.4 0.00 0.00 0.00 70 1013.8
20260507075004 19 56 8.0 30.6 0.00 0.00 0.00 71 1013.7
20260507074715 19 67 8.0 30.6 0.00 0.00 0.00 72 1013.6
20260507074003 19 74 11.3 30.6 0.00 0.00 0.00 72 1013.7
20260507073503 18 60 9.7 27.4 0.00 0.00 0.00 72 1013.9
20260507073004 18 38 9.7 27.4 0.00 0.00 0.00 73 1013.8
20260507072503 19 44 8.0 27.4 0.00 0.00 0.00 71 1013.9
20260507072004 18 69 9.7 37.0 0.00 0.00 0.00 73 1013.7
20260507071504 18 76 9.7 37.0 0.00 0.00 0.00 74 1013.9
20260507071004 18 74 9.7 29.0 0.00 0.00 0.00 72 1013.9
20260507070714 18 65 8.0 14.5 0.00 0.00 0.00 73 1013.9
20260507070217 18 48 8.0 30.6 0.00 0.00 0.00 73 1014.2
20260507065503 18 47 6.4 27.4 0.00 0.00 0.00 75 1013.9
20260507065213 18 50 6.4 27.4 0.00 0.00 0.00 74 1014.3
20260507064716 18 45 8.0 27.4 0.00 0.00 0.00 76 1014.1
20260507064213 18 63 8.0 16.1 0.00 0.00 0.00 79 1014.3
20260507063503 18 59 9.7 30.6 0.00 0.00 0.00 80 1014.2
20260507063003 17 60 9.7 29.0 0.00 0.00 0.00 82 1014.1
20260507062504 17 72 8.0 27.4 0.00 0.00 0.00 82 1014.2
20260507062003 17 73 8.0 22.5 0.00 0.00 0.00 83 1014.3
20260507061503 17 69 6.4 25.7 0.00 0.00 0.00 84 1014.1
20260507061217 17 71 6.4 25.7 0.00 0.00 0.00 84 1014.1
20260507060714 17 66 6.4 14.5 0.00 0.00 0.00 85 1014.1
20260507060004 17 69 8.0 29.0 0.00 0.00 0.00 86 1014.3
20260507055503 17 67 8.0 29.0 0.00 0.00 0.00 85 1014.4
20260507055213 17 69 6.4 25.7 0.00 0.00 0.00 85 1014.4
20260507054716 17 71 6.4 22.5 0.00 0.00 0.00 86 1014.4
20260507054004 17 82 6.4 22.5 0.00 0.00 0.00 85 1014.3
20260507053503 17 78 4.8 17.7 0.00 0.00 0.00 84 1014.2
20260507053004 17 67 4.8 17.7 0.00 0.00 0.00 84 1014.4
20260507052503 17 51 6.4 17.7 0.00 0.00 0.00 84 1014.2
20260507052004 17 45 6.4 17.7 0.00 0.00 0.00 83 1014.1
20260507051503 17 61 6.4 11.3 0.00 0.00 0.00 83 1014.1
20260507051003 16 61 6.4 20.9 0.00 0.00 0.00 83 1014.1
20260507050503 17 53 6.4 20.9 0.00 0.00 0.00 85 1014.2
20260507050003 16 58 4.8 16.1 0.00 0.00 0.00 84 1014.3
20260507045503 16 58 4.8 16.1 0.00 0.00 0.00 84 1014.1
20260507045003 16 45 4.8 11.3 0.00 0.00 0.00 84 1013.8
20260507044504 16 55 6.4 20.9 0.00 0.00 0.00 84 1014.0
20260507044004 16 74 4.8 20.9 0.00 0.00 0.00 84 1014.1
20260507043503 16 69 4.8 14.5 0.00 0.00 0.00 84 1014.1
20260507043004 16 59 3.2 11.3 0.00 0.00 0.00 84 1014.0
20260507042503 16 67 3.2 14.5 0.00 0.00 0.00 84 1014.1
20260507042003 16 76 3.2 14.5 0.00 0.00 0.00 83 1014.1
20260507041503 16 70 3.2 11.3 0.00 0.00 0.00 82 1013.9
20260507041003 16 56 1.6 6.4 0.00 0.00 0.00 80 1014.0
20260507040503 16 57 3.2 12.9 0.00 0.00 0.00 78 1014.0
20260507040003 17 62 1.6 12.9 0.00 0.00 0.00 77 1014.0
20260507035504 16 56 1.6 11.3 0.00 0.00 0.00 79 1014.2
20260507035004 17 43 1.6 9.7 0.00 0.00 0.00 78 1014.2
20260507034718 17 39 1.6 9.7 0.00 0.00 0.00 77 1014.5
20260507034003 17 43 1.6 6.4 0.00 0.00 0.00 74 1014.4
20260507033503 16 67 1.6 6.4 0.00 0.00 0.00 79 1014.3
20260507033004 17 91 1.6 6.4 0.00 0.00 0.00 78 1014.5
20260507032503 17 107 1.6 4.8 0.00 0.00 0.00 78 1014.6
20260507032004 17 50 1.6 9.7 0.00 0.00 0.00 76 1014.5
20260507031504 17 44 1.6 9.7 0.00 0.00 0.00 75 1014.5
20260507031004 17 68 1.6 4.8 0.00 0.00 0.00 74 1014.4
20260507030503 17 50 1.6 11.3 0.00 0.00 0.00 73 1014.5
20260507030003 17 39 1.6 11.3 0.00 0.00 0.00 72 1014.6
20260507025503 17 40 0.0 3.2 0.00 0.00 0.00 70 1014.7
20260507025004 17 45 1.6 9.7 0.00 0.00 0.00 68 1014.6
20260507024503 17 39 1.6 9.7 0.00 0.00 0.00 65 1014.5
20260507024003 17 37 1.6 9.7 0.00 0.00 0.00 64 1014.4
20260507023504 17 75 1.6 4.8 0.00 0.00 0.00 63 1014.1
20260507023004 17 88 1.6 4.8 0.00 0.00 0.00 63 1014.3
20260507022503 17 92 1.6 3.2 0.00 0.00 0.00 64 1014.3
20260507022003 17 75 1.6 9.7 0.00 0.00 0.00 63 1014.0
20260507021504 17 63 1.6 9.7 0.00 0.00 0.00 62 1014.0
20260507021004 17 73 1.6 6.4 0.00 0.00 0.00 60 1013.9
20260507020503 17 91 1.6 3.2 0.00 0.00 0.00 61 1014.0
20260507020004 17 88 1.6 9.7 0.00 0.00 0.00 64 1014.0
20260507015713 17 85 1.6 9.7 0.00 0.00 0.00 63 1014.1
20260507015004 18 50 1.6 6.4 0.00 0.00 0.00 60 1014.0
20260507014503 17 94 1.6 6.4 0.00 0.00 0.00 62 1014.1
20260507014004 17 115 1.6 4.8 0.00 0.00 0.00 68 1014.0
20260507013715 17 109 1.6 3.2 0.00 0.00 0.00 68 1014.1
20260507013004 17 104 1.6 4.8 0.00 0.00 0.00 68 1014.1
20260507012504 17 95 1.6 3.2 0.00 0.00 0.00 67 1014.2
20260507012003 17 56 0.0 3.2 0.00 0.00 0.00 67 1014.4
20260507011503 17 78 0.0 3.2 0.00 0.00 0.00 67 1014.4
20260507011003 17 99 0.0 3.2 0.00 0.00 0.00 70 1014.5
20260507010503 17 83 0.0 3.2 0.00 0.00 0.00 70 1014.7
20260507010004 17 98 1.6 4.8 0.00 0.00 0.00 71 1014.7
20260507005504 17 94 1.6 4.8 0.00 0.00 0.00 72 1014.6
20260507005004 17 97 1.6 3.2 0.00 0.00 0.00 75 1014.6
20260507004714 17 115 1.6 6.4 0.00 0.00 0.00 76 1014.5
20260507004003 17 115 1.6 6.4 0.00 0.00 0.00 76 1014.5
20260507003503 17 101 1.6 4.8 0.00 0.00 0.00 77 1014.5
20260507003003 17 88 1.6 4.8 0.00 0.00 0.00 77 1014.7
20260507002503 16 77 0.0 4.8 0.00 0.00 0.00 78 1014.8
20260507002003 16 95 0.0 4.8 0.00 0.00 0.00 78 1015.1
20260507001504 16 105 0.0 4.8 0.00 0.00 0.00 79 1015.0
20260507001003 16 108 0.0 3.2 0.00 0.00 0.00 80 1015.1
20260507000503 16 137 1.6 3.2 0.00 0.00 0.00 80 1015.2
20260507000216 16 146 1.6 1.6 0.00 0.00 0.00 80 1015.3
20260506235504 16 132 1.6 4.8 0.00 0.00 0.00 80 1015.3
20260506235004 16 142 0.0 3.2 0.00 0.00 0.00 80 1015.2
20260506234503 16 135 0.0 3.2 0.00 0.00 0.00 80 1015.4
20260506234003 16 104 1.6 6.4 0.00 0.00 0.00 80 1015.4
20260506233503 16 98 1.6 6.4 0.00 0.00 0.00 81 1015.1
20260506233004 16 72 0.0 3.2 0.00 0.00 0.00 81 1015.2
20260506232717 16 56 1.6 3.2 0.00 0.00 0.00 82 1015.3
20260506232003 16 49 1.6 4.8 0.00 0.00 0.00 82 1015.3
20260506231503 16 58 1.6 4.8 0.00 0.00 0.00 82 1015.5
20260506230503 16 40 1.6 11.3 0.00 0.00 0.00 82 1015.6
20260506230003 16 50 1.6 11.3 0.00 0.00 0.00 82 1015.6
20260506225504 16 76 1.6 6.4 0.00 0.00 0.00 81 1015.4
20260506225003 16 74 1.6 4.8 0.00 0.00 0.00 81 1015.4
20260506224714 16 54 1.6 4.8 0.00 0.00 0.00 81 1015.4
20260506224004 17 54 1.6 6.4 0.00 0.00 0.00 81 1015.6
20260506223504 17 75 1.6 6.4 0.00 0.00 0.00 82 1015.7
20260506223003 17 83 1.6 4.8 0.00 0.00 0.00 83 1015.8
20260506222503 17 72 1.6 9.7 0.00 0.00 0.00 83 1015.8
20260506222003 17 56 1.6 9.7 0.00 0.00 0.00 83 1015.6
20260506221504 17 70 1.6 6.4 0.00 0.00 0.00 83 1015.9
20260506221004 17 67 1.6 6.4 0.00 0.00 0.00 83 1015.9
20260506220503 17 55 1.6 4.8 0.00 0.00 0.00 84 1015.9
20260506220008 17 55 1.6 6.4 0.00 0.00 0.00 85 1015.7
20260506215503 17 58 1.6 9.7 0.00 0.00 0.00 85 1015.8
20260506215003 17 56 1.6 9.7 0.00 0.00 0.00 85 1015.9
20260506214504 17 38 3.2 8.0 0.00 0.00 0.00 85 1016.1
20260506214004 17 33 3.2 12.9 0.00 0.00 0.00 85 1016.3
20260506213504 17 40 3.2 12.9 0.00 0.00 0.00 85 1015.8
20260506213214 17 46 3.2 6.4 0.00 0.00 0.00 85 1016.1
20260506212503 17 74 3.2 11.3 0.00 0.00 0.00 85 1015.8
20260506212003 17 71 3.2 11.3 0.00 0.00 0.00 85 1016.0
20260506211503 17 60 3.2 9.7 0.00 0.00 0.00 85 1016.0
20260506211003 17 62 3.2 12.9 0.00 0.00 0.00 85 1016.1
20260506210714 17 62 3.2 12.9 0.00 0.00 0.00 86 1016.0
20260506210004 17 52 1.6 11.3 0.00 0.00 0.00 86 1016.0
20260506205715 17 50 1.6 9.7 0.00 0.00 0.00 86 1015.8
20260506205004 17 44 3.2 9.7 0.00 0.00 0.00 86 1015.7
20260506204504 17 43 3.2 16.1 0.00 0.00 0.00 86 1015.7
20260506204004 17 55 4.8 16.1 0.00 0.00 0.00 86 1015.6
20260506203717 17 64 3.2 14.5 0.00 0.00 0.00 86 1015.3
20260506203004 17 51 4.8 17.7 0.00 0.00 0.00 86 1015.1
20260506202503 17 52 4.8 17.7 0.00 0.00 0.00 86 1014.8
20260506202003 17 66 4.8 16.1 0.00 0.00 0.00 85 1014.9
20260506201503 17 66 4.8 14.5 0.00 0.00 0.00 85 1015.1
20260506201004 17 64 4.8 9.7 0.00 0.00 0.00 85 1015.0
20260506200503 17 58 4.8 14.5 0.00 0.00 0.00 85 1014.9
20260506200005 17 53 4.8 14.5 0.00 0.00 0.00 85 1014.8
20260506195503 17 52 4.8 9.7 0.00 0.00 0.00 85 1014.3
20260506195003 17 57 4.8 20.9 0.00 0.00 0.00 85 1014.5
20260506194503 17 61 4.8 20.9 0.00 0.00 0.00 84 1014.5
20260506194004 17 61 3.2 9.7 0.00 0.00 0.00 85 1015.1
20260506193503 17 71 3.2 14.5 0.00 0.00 0.00 85 1015.4
20260506193003 17 63 3.2 14.5 0.00 0.00 0.00 85 1015.7
20260506192504 17 51 1.6 4.8 0.00 0.00 0.00 85 1015.8
20260506192003 17 51 1.6 6.4 0.00 0.00 0.00 85 1015.7
20260506191504 17 52 1.6 6.4 0.00 0.00 0.00 85 1016.0
20260506191004 17 72 1.6 11.3 0.00 0.00 0.00 85 1016.0
20260506190504 17 82 3.2 11.3 0.00 0.00 0.00 85 1016.0
20260506190004 17 101 3.2 9.7 0.00 0.00 0.00 85 1015.9
20260506185504 17 77 3.2 11.3 0.00 0.00 0.00 86 1015.9
20260506185004 17 67 3.2 11.3 0.00 0.00 0.00 86 1015.9
20260506184503 17 81 1.6 9.7 0.00 0.00 0.00 86 1015.9
20260506184215 17 86 1.6 9.7 0.00 0.00 0.00 86 1016.0
20260506183504 17 88 3.2 12.9 0.00 0.00 0.00 86 1016.1
20260506183003 17 80 3.2 12.9 0.00 0.00 0.00 86 1016.1
20260506182504 17 86 3.2 12.9 0.00 0.00 0.00 86 1016.1
20260506182003 17 84 3.2 12.9 0.00 0.00 0.00 86 1016.0
20260506181503 17 63 3.2 11.3 0.00 0.00 0.00 85 1016.1
20260506181003 17 70 3.2 12.9 0.00 0.00 0.00 85 1016.1
20260506180503 17 80 3.2 12.9 0.00 0.00 0.00 85 1016.1
20260506180005 17 73 3.2 11.3 0.00 0.00 0.00 85 1016.2
20260506175504 17 74 1.6 11.3 0.00 0.00 0.00 85 1016.1
20260506175004 17 72 1.6 6.4 0.00 0.00 0.00 85 1016.1
20260506174503 17 77 3.2 12.9 0.00 0.00 0.00 85 1016.1
20260506174004 17 63 3.2 12.9 0.00 0.00 0.00 84 1016.0
20260506173503 17 82 3.2 6.4 0.00 0.00 0.00 85 1015.8
20260506173003 17 83 3.2 12.9 0.00 0.00 0.00 85 1015.8
20260506172714 17 72 3.2 12.9 0.00 0.00 0.00 85 1015.7
20260506172003 17 80 4.8 17.7 0.00 0.00 0.00 84 1015.7
20260506171715 17 80 4.8 17.7 0.00 0.00 0.00 84 1015.7
20260506171213 17 70 3.2 8.0 0.00 0.00 0.00 84 1015.7
20260506170503 17 66 3.2 12.9 0.00 0.00 0.00 83 1015.6
20260506170004 17 67 4.8 11.3 0.00 0.00 0.00 83 1015.5
20260506165503 17 83 4.8 14.5 0.00 0.00 0.00 83 1015.6
20260506165004 17 95 4.8 14.5 0.00 0.00 0.00 82 1015.6
20260506164503 17 101 4.8 16.1 0.00 0.00 0.00 82 1015.8
20260506164003 17 99 4.8 16.1 0.00 0.00 0.00 82 1015.8
20260506163504 18 94 3.2 14.5 0.00 0.00 0.00 82 1015.8
20260506163003 18 84 1.6 12.9 0.00 0.00 0.00 81 1015.6
20260506162503 18 79 3.2 12.9 0.00 0.00 0.00 81 1015.7
20260506162213 17 70 3.2 16.1 0.00 0.00 0.00 81 1015.7
20260506161503 18 78 4.8 16.1 0.00 0.00 0.00 81 1015.9
20260506161214 18 82 3.2 9.7 0.00 0.00 0.00 81 1015.8
20260506160503 18 67 3.2 14.5 0.00 0.00 0.00 82 1015.7
20260506160215 18 65 4.8 14.5 0.00 0.00 0.00 82 1015.9
20260506155504 18 76 3.2 11.3 0.00 0.00 0.00 81 1015.9
20260506155003 18 81 3.2 11.3 0.00 0.00 0.00 81 1016.0
20260506154503 18 77 3.2 11.3 0.00 0.00 0.00 81 1016.0
20260506154004 18 76 4.8 14.5 0.00 0.00 0.00 80 1016.0
20260506153504 18 73 4.8 14.5 0.00 0.00 0.00 80 1016.1
20260506153004 18 77 3.2 12.9 0.00 0.00 0.00 81 1015.9
20260506152503 18 88 4.8 17.7 0.00 0.00 0.00 80 1015.9
20260506152003 18 91 3.2 17.7 0.00 0.00 0.00 80 1015.8
20260506151504 18 98 3.2 14.5 0.00 0.00 0.00 79 1015.9
20260506151004 18 94 4.8 14.5 0.00 0.00 0.00 79 1016.0
20260506150503 18 93 3.2 12.9 0.00 0.00 0.00 80 1016.1
20260506150004 18 95 3.2 12.9 0.00 0.00 0.00 79 1016.4
20260506145504 18 94 4.8 14.5 0.00 0.00 0.00 79 1016.1